星链-5623 (STARLINK-5623 )

导读

STARLINK-5623是美国太空探索技术公司星链互联网卫星项目的一员,于2023年1月31日发射升空,属于星链星座组网的第二代卫星。它旨在为全球提供低延迟、高速率的宽带互联网服务,尤其覆盖偏远与网络基础设施匮乏区域,依托近地轨道部署,助力星链完成全球卫星互联网组网建设。

基本信息
目录编号:
55405
目录名称:
STARLINK-5623
国际标识:
2023-014Q
轨道中心:
EARTH
卫星名称:
星链-5623
卫星全名:
星链-5623 (STARLINK-5623 )
卫星状态:
在轨 (已飞行1231 天)
发射日期:
2023-01-31 UTC
国别 :
美国 (US)
星等 :
--
轨道信息
数据来源 国际轨道数据 AOE轨道数据
星历时间 2026-06-15T02:04:34+0800
8小时前
查看轨道信息
2026-06-13T07:00:00+0800
2天前
查看轨道信息
半长轴 6950.194km 6950.194km
偏心率 0.0003943 0.0003958
轨道倾角 69.999° 70.000°
近地点辐角 266.613° 275.103°
升交点赤经 179.761° 184.287°
平近点角 93.458° 126.400°
近地点 569.316km 569.306km
远地点 574.798km 574.808km
周期 96.107分钟 96.107分钟
每日圈数 14.983298 14.983297
详细信息
固有亮度:
5
最大亮度:
2.5
卫星平台:
Starlink v1.5
覆盖范围:
全球
运营商:
太空探索技术公司
运营商所在国:
美国
制造商(研发单位):
太空探索技术公司
制造商所在国:
美国
使用方式:
暂无
卫星简介
星链(Starlink)计划是由太空探索技术公司(SpaceX)提出的一个巨型低轨卫星互联网星座项目,计划在2019年至2024年间在太空搭建由约1.2万颗卫星组成的“星链”网络,其中1584颗将部署在地球上空550千米处的近地轨道,并从2020年开始工作。该卫星仍在工作。
2D轨道图
3D轨道图
轨道高度分析图
轨道倾角分析图
轨道综合分析图
查看轨道综合分析图